Time,TemperatureF,DewpointF,PressureIn,WindDirection,WindDirectionDegrees,WindSpeedMPH,WindSpeedGustMPH,Humidity,HourlyPrecipIn,Conditions,Clouds,dailyrainin,SoftwareType,DateUTC
2013-09-12 00:00:00,69.6,68.7,30.04,ENE,71,0.0,0.0,97,0.00,,,0.00,Wunderground v.1.15,2013-09-12 04:00:00,
2013-09-12 00:05:00,69.5,68.9,30.03,ENE,71,0.0,0.0,98,0.00,,,0.00,Wunderground v.1.15,2013-09-12 04:05:00,
2013-09-12 00:10:00,69.4,68.5,30.03,ENE,71,0.0,0.0,97,0.00,,,0.00,Wunderground v.1.15,2013-09-12 04:10:00,
2013-09-12 00:15:00,69.3,68.4,30.03,ENE,71,0.0,0.0,97,0.00,,,0.00,Wunderground v.1.15,2013-09-12 04:15:00,
2013-09-12 00:20:00,69.2,68.3,30.03,ENE,71,0.0,0.0,97,0.00,,,0.00,Wunderground v.1.15,2013-09-12 04:20:00,
2013-09-12 00:25:00,69.2,68.6,30.03,ENE,71,0.0,0.0,98,0.00,,,0.00,Wunderground v.1.15,2013-09-12 04:25:00,
2013-09-12 00:30:00,69.2,68.6,30.03,ENE,71,0.0,0.0,98,0.00,,,0.00,Wunderground v.1.15,2013-09-12 04:30:00,
2013-09-12 00:40:00,69.2,68.6,30.03,ENE,71,0.0,0.0,98,0.00,,,0.00,Wunderground v.1.15,2013-09-12 04:40:00,
2013-09-12 00:45:00,69.1,68.5,30.03,ENE,71,0.0,0.0,98,0.00,,,0.00,Wunderground v.1.15,2013-09-12 04:45:00,
2013-09-12 00:50:00,69.1,68.5,30.03,ENE,71,0.0,0.0,98,0.00,,,0.00,Wunderground v.1.15,2013-09-12 04:50:00,
2013-09-12 00:55:00,69.1,68.5,30.02,ENE,71,0.0,0.0,98,0.00,,,0.00,Wunderground v.1.15,2013-09-12 04:55:00,
2013-09-12 01:00:00,69.2,68.9,30.02,ENE,71,0.0,0.0,99,0.00,,,0.00,Wunderground v.1.15,2013-09-12 05:00:00,
2013-09-12 01:05:00,69.1,68.8,30.02,ENE,71,0.0,0.0,99,0.00,,,0.00,Wunderground v.1.15,2013-09-12 05:05:00,
2013-09-12 01:10:00,69.0,68.4,30.02,ENE,71,0.0,0.0,98,0.00,,,0.00,Wunderground v.1.15,2013-09-12 05:10:00,
2013-09-12 01:20:00,68.9,68.3,30.01,ENE,71,0.0,0.0,98,0.00,,,0.00,Wunderground v.1.15,2013-09-12 05:20:00,
2013-09-12 01:25:00,69.0,68.7,30.01,ENE,71,0.0,0.0,99,0.00,,,0.00,Wunderground v.1.15,2013-09-12 05:25:00,
2013-09-12 01:30:00,68.9,68.6,30.01,ENE,71,0.0,0.0,99,0.00,,,0.00,Wunderground v.1.15,2013-09-12 05:30:00,
2013-09-12 01:40:00,69.1,68.8,30.01,ENE,71,0.0,0.0,99,0.00,,,0.00,Wunderground v.1.15,2013-09-12 05:40:00,
2013-09-12 01:45:00,69.1,68.8,30.01,ENE,71,0.0,0.0,99,0.00,,,0.00,Wunderground v.1.15,2013-09-12 05:45:00,
2013-09-12 01:55:00,69.0,68.7,30.01,ENE,71,0.0,0.0,99,0.00,,,0.00,Wunderground v.1.15,2013-09-12 05:55:00,
2013-09-12 02:00:00,69.0,68.7,30.00,ENE,71,0.0,0.0,99,0.00,,,0.00,Wunderground v.1.15,2013-09-12 06:00:00,
2013-09-12 02:05:00,68.9,68.6,30.00,ENE,71,0.0,0.0,99,0.00,,,0.00,Wunderground v.1.15,2013-09-12 06:05:00,
2013-09-12 02:10:00,68.9,68.3,30.00,ENE,71,0.0,0.0,98,0.00,,,0.00,Wunderground v.1.15,2013-09-12 06:10:00,
2013-09-12 02:15:00,68.8,68.5,30.00,ENE,71,0.0,0.0,99,0.00,,,0.00,Wunderground v.1.15,2013-09-12 06:15:00,
2013-09-12 02:20:00,68.9,68.6,30.00,ENE,71,0.0,0.0,99,0.00,,,0.00,Wunderground v.1.15,2013-09-12 06:20:00,
2013-09-12 02:25:00,68.8,68.5,30.00,ENE,71,0.0,0.0,99,0.00,,,0.00,Wunderground v.1.15,2013-09-12 06:25:00,
2013-09-12 02:35:00,68.6,68.3,30.00,ENE,71,0.0,0.0,99,0.00,,,0.00,Wunderground v.1.15,2013-09-12 06:35:00,
2013-09-12 02:40:00,68.5,67.9,30.00,ENE,71,0.0,0.0,98,0.00,,,0.00,Wunderground v.1.15,2013-09-12 06:40:00,
2013-09-12 02:45:00,68.4,68.1,30.00,ENE,71,0.0,0.0,99,0.00,,,0.00,Wunderground v.1.15,2013-09-12 06:45:00,
2013-09-12 02:55:00,68.3,68.0,30.00,ENE,71,0.0,0.0,99,0.00,,,0.00,Wunderground v.1.15,2013-09-12 06:55:00,
2013-09-12 03:00:00,68.4,68.1,30.00,ENE,71,0.0,0.0,99,0.00,,,0.00,Wunderground v.1.15,2013-09-12 07:00:00,
2013-09-12 03:05:00,68.5,68.2,30.00,ENE,71,0.0,0.0,99,0.00,,,0.00,Wunderground v.1.15,2013-09-12 07:05:00,
2013-09-12 03:15:00,68.4,68.1,29.99,ENE,71,0.0,0.0,99,0.00,,,0.00,Wunderground v.1.15,2013-09-12 07:15:00,
2013-09-12 03:20:00,68.4,68.1,30.00,ENE,71,0.0,0.0,99,0.00,,,0.00,Wunderground v.1.15,2013-09-12 07:20:00,
2013-09-12 03:25:00,68.4,68.1,30.00,ENE,71,0.0,0.0,99,0.00,,,0.00,Wunderground v.1.15,2013-09-12 07:25:00,
2013-09-12 03:35:00,68.3,68.0,29.99,ENE,71,0.0,0.0,99,0.00,,,0.00,Wunderground v.1.15,2013-09-12 07:35:00,
2013-09-12 03:40:00,68.2,67.9,29.99,ENE,71,0.0,0.0,99,0.00,,,0.00,Wunderground v.1.15,2013-09-12 07:40:00,
2013-09-12 03:45:00,68.1,67.8,29.99,ENE,71,0.0,0.0,99,0.00,,,0.00,Wunderground v.1.15,2013-09-12 07:45:00,
2013-09-12 03:55:00,68.2,67.9,29.99,ENE,71,0.0,0.0,99,0.00,,,0.00,Wunderground v.1.15,2013-09-12 07:55:00,
2013-09-12 04:00:00,68.3,68.0,29.98,ENE,71,0.0,0.0,99,0.00,,,0.00,Wunderground v.1.15,2013-09-12 08:00:00,
2013-09-12 04:05:00,68.4,68.1,29.98,ENE,71,0.0,0.0,99,0.00,,,0.00,Wunderground v.1.15,2013-09-12 08:05:00,
2013-09-12 04:15:00,68.6,68.3,29.98,ENE,71,0.0,0.0,99,0.00,,,0.00,Wunderground v.1.15,2013-09-12 08:15:00,
2013-09-12 04:20:00,68.6,68.3,29.98,ENE,71,0.0,0.0,99,0.00,,,0.00,Wunderground v.1.15,2013-09-12 08:20:00,
2013-09-12 04:25:00,68.7,68.7,29.98,ENE,71,0.0,0.0,100,0.00,,,0.00,Wunderground v.1.15,2013-09-12 08:25:00,
2013-09-12 04:35:00,68.6,68.3,29.98,ENE,71,0.0,0.0,99,0.00,,,0.00,Wunderground v.1.15,2013-09-12 08:35:00,
2013-09-12 04:40:00,68.6,68.3,29.98,ENE,71,0.0,0.0,99,0.00,,,0.00,Wunderground v.1.15,2013-09-12 08:40:00,
2013-09-12 04:45:00,68.6,68.3,29.98,ENE,71,0.0,0.0,99,0.00,,,0.00,Wunderground v.1.15,2013-09-12 08:45:00,
2013-09-12 04:55:00,68.6,68.3,29.98,ENE,71,0.0,0.0,99,0.00,,,0.00,Wunderground v.1.15,2013-09-12 08:55:00,
2013-09-12 05:00:00,68.5,68.2,29.98,ENE,71,0.0,0.0,99,0.00,,,0.00,Wunderground v.1.15,2013-09-12 09:00:00,
2013-09-12 05:05:00,68.5,68.2,29.98,ENE,71,0.0,0.0,99,0.00,,,0.00,Wunderground v.1.15,2013-09-12 09:05:00,
2013-09-12 05:15:00,68.4,68.1,29.98,ENE,71,0.0,0.0,99,0.00,,,0.00,Wunderground v.1.15,2013-09-12 09:15:00,
2013-09-12 05:20:00,68.4,68.1,29.98,ENE,71,0.0,0.0,99,0.00,,,0.00,Wunderground v.1.15,2013-09-12 09:20:00,
2013-09-12 05:25:00,68.4,68.1,29.98,ENE,71,0.0,0.0,99,0.00,,,0.00,Wunderground v.1.15,2013-09-12 09:25:00,
2013-09-12 05:35:00,68.4,68.1,29.98,ENE,71,0.0,0.0,99,0.00,,,0.00,Wunderground v.1.15,2013-09-12 09:35:00,
2013-09-12 05:40:00,68.3,68.0,29.98,ENE,71,0.0,0.0,99,0.00,,,0.00,Wunderground v.1.15,2013-09-12 09:40:00,
2013-09-12 05:45:00,68.2,67.9,29.98,ENE,71,0.0,0.0,99,0.00,,,0.00,Wunderground v.1.15,2013-09-12 09:45:00,
2013-09-12 05:55:00,68.2,67.9,29.98,ENE,71,0.0,0.0,99,0.00,,,0.00,Wunderground v.1.15,2013-09-12 09:55:00,
2013-09-12 06:00:00,68.1,67.8,29.98,ENE,71,0.0,0.0,99,0.00,,,0.00,Wunderground v.1.15,2013-09-12 10:00:00,
2013-09-12 06:05:00,68.1,67.8,29.98,ENE,71,0.0,0.0,99,0.00,,,0.00,Wunderground v.1.15,2013-09-12 10:05:00,
2013-09-12 06:15:00,67.9,67.6,29.98,ENE,71,0.0,0.0,99,0.00,,,0.00,Wunderground v.1.15,2013-09-12 10:15:00,
2013-09-12 06:20:00,67.8,67.5,29.98,ENE,71,0.0,0.0,99,0.00,,,0.00,Wunderground v.1.15,2013-09-12 10:20:00,
2013-09-12 06:30:00,67.7,67.4,29.98,ENE,71,0.0,0.0,99,0.00,,,0.00,Wunderground v.1.15,2013-09-12 10:30:00,
2013-09-12 06:35:00,67.6,67.3,29.98,ENE,71,0.0,0.0,99,0.00,,,0.00,Wunderground v.1.15,2013-09-12 10:35:00,
2013-09-12 06:40:00,67.5,67.2,29.98,ENE,71,0.0,0.0,99,0.00,,,0.00,Wunderground v.1.15,2013-09-12 10:40:00,
2013-09-12 06:45:00,67.5,67.2,29.98,ENE,71,0.0,0.0,99,0.00,,,0.00,Wunderground v.1.15,2013-09-12 10:45:00,
2013-09-12 06:55:00,67.4,67.1,29.98,ENE,71,0.0,0.0,99,0.00,,,0.00,Wunderground v.1.15,2013-09-12 10:55:00,
2013-09-12 07:00:00,67.5,67.2,29.98,ENE,71,0.0,0.0,99,0.00,,,0.00,Wunderground v.1.15,2013-09-12 11:00:00,
2013-09-12 07:05:00,67.5,67.5,29.98,ENE,71,0.0,0.0,100,0.00,,,0.00,Wunderground v.1.15,2013-09-12 11:05:00,
2013-09-12 07:15:00,67.5,67.5,29.98,ENE,71,0.0,0.0,100,0.00,,,0.00,Wunderground v.1.15,2013-09-12 11:15:00,
2013-09-12 07:20:00,67.6,67.6,29.98,ENE,71,0.0,0.0,100,0.00,,,0.00,Wunderground v.1.15,2013-09-12 11:20:00,
2013-09-12 07:30:00,67.9,67.9,29.98,ENE,71,0.0,0.0,100,0.00,,,0.00,Wunderground v.1.15,2013-09-12 11:30:00,
2013-09-12 07:35:00,68.1,68.1,29.98,ENE,71,0.0,0.0,100,0.00,,,0.00,Wunderground v.1.15,2013-09-12 11:35:00,
2013-09-12 07:40:00,68.2,68.2,29.98,ENE,71,0.0,0.0,100,0.00,,,0.00,Wunderground v.1.15,2013-09-12 11:40:00,
2013-09-12 07:45:00,68.4,68.4,29.97,ENE,71,0.0,0.0,100,0.00,,,0.00,Wunderground v.1.15,2013-09-12 11:45:00,
2013-09-12 07:55:00,68.8,68.8,29.98,ENE,71,0.0,0.0,100,0.00,,,0.00,Wunderground v.1.15,2013-09-12 11:55:00,
2013-09-12 08:00:00,69.0,69.0,29.97,ENE,71,0.0,0.0,100,0.00,,,0.00,Wunderground v.1.15,2013-09-12 12:00:00,
2013-09-12 08:10:00,69.5,69.5,29.97,ENE,71,0.0,0.0,100,0.00,,,0.00,Wunderground v.1.15,2013-09-12 12:10:00,
2013-09-12 08:15:00,69.8,69.8,29.97,ENE,71,0.0,0.0,100,0.00,,,0.00,Wunderground v.1.15,2013-09-12 12:15:00,
2013-09-12 08:20:00,70.0,70.0,29.97,ENE,71,0.0,0.0,100,0.00,,,0.00,Wunderground v.1.15,2013-09-12 12:20:00,
2013-09-12 08:25:00,70.2,70.2,29.97,ENE,71,0.0,0.0,100,0.00,,,0.00,Wunderground v.1.15,2013-09-12 12:25:00,
2013-09-12 08:35:00,70.8,70.2,29.96,ESE,109,0.0,1.0,98,0.00,,,0.00,Wunderground v.1.15,2013-09-12 12:35:00,
2013-09-12 08:40:00,71.1,70.2,29.96,NE,36,1.0,1.0,97,0.00,,,0.00,Wunderground v.1.15,2013-09-12 12:40:00,
2013-09-12 08:50:00,71.8,70.0,29.96,NE,40,1.0,1.0,94,0.00,,,0.00,Wunderground v.1.15,2013-09-12 12:50:00,
2013-09-12 08:55:00,72.2,70.1,29.96,ENE,67,1.0,1.0,93,0.00,,,0.00,Wunderground v.1.15,2013-09-12 12:55:00,
2013-09-12 09:00:00,72.6,70.1,29.96,ENE,78,1.0,1.0,92,0.00,,,0.00,Wunderground v.1.15,2013-09-12 13:00:00,
2013-09-12 09:10:00,73.0,69.9,29.96,South,169,1.0,1.0,90,0.00,,,0.00,Wunderground v.1.15,2013-09-12 13:10:00,
2013-09-12 09:15:00,73.4,70.0,29.96,East,92,1.0,3.0,89,0.00,,,0.00,Wunderground v.1.15,2013-09-12 13:15:00,
2013-09-12 09:20:00,73.7,69.9,29.96,SE,128,1.0,1.0,88,0.00,,,0.00,Wunderground v.1.15,2013-09-12 13:20:00,
2013-09-12 09:30:00,74.2,70.7,29.96,SE,128,0.0,0.0,89,0.00,,,0.00,Wunderground v.1.15,2013-09-12 13:30:00,
2013-09-12 09:35:00,74.3,71.2,29.96,SE,128,0.0,0.0,90,0.00,,,0.00,Wunderground v.1.15,2013-09-12 13:35:00,
2013-09-12 09:40:00,74.2,71.1,29.96,SE,128,0.0,0.0,90,0.00,,,0.00,Wunderground v.1.15,2013-09-12 13:40:00,
2013-09-12 09:50:00,74.6,70.8,29.95,ESE,111,0.0,0.0,88,0.00,,,0.00,Wunderground v.1.15,2013-09-12 13:50:00,
2013-09-12 09:55:00,75.0,71.2,29.95,ESE,102,1.0,1.0,88,0.00,,,0.00,Wunderground v.1.15,2013-09-12 13:55:00,
2013-09-12 10:00:00,75.4,71.6,29.95,SE,133,1.0,1.0,88,0.00,,,0.00,Wunderground v.1.15,2013-09-12 14:00:00,
2013-09-12 10:10:00,76.0,71.5,29.95,NE,42,0.0,0.0,86,0.00,,,0.00,Wunderground v.1.15,2013-09-12 14:10:00,
2013-09-12 10:15:00,76.6,71.7,29.95,ESE,105,1.0,1.0,85,0.00,,,0.00,Wunderground v.1.15,2013-09-12 14:15:00,
2013-09-12 10:20:00,76.9,71.7,29.95,SE,130,1.0,1.0,84,0.00,,,0.00,Wunderground v.1.15,2013-09-12 14:20:00,
2013-09-12 10:30:00,77.4,72.2,29.94,South,171,0.0,0.0,84,0.00,,,0.00,Wunderground v.1.15,2013-09-12 14:30:00,
2013-09-12 10:35:00,77.6,72.0,29.94,SE,125,0.0,0.0,83,0.00,,,0.00,Wunderground v.1.15,2013-09-12 14:35:00,
2013-09-12 10:40:00,77.8,72.9,29.94,SE,140,1.0,1.0,85,0.00,,,0.00,Wunderground v.1.15,2013-09-12 14:40:00,
2013-09-12 10:50:00,77.8,72.2,29.94,NE,54,0.0,1.0,83,0.00,,,0.00,Wunderground v.1.15,2013-09-12 14:50:00,
2013-09-12 10:55:00,78.3,72.3,29.94,East,90,1.0,1.0,82,0.00,,,0.00,Wunderground v.1.15,2013-09-12 14:55:00,
2013-09-12 11:00:00,78.7,72.4,29.94,ENE,74,1.0,1.0,81,0.00,,,0.00,Wunderground v.1.15,2013-09-12 15:00:00,
2013-09-12 11:10:00,79.5,73.5,29.94,ENE,74,0.0,0.0,82,0.00,,,0.00,Wunderground v.1.15,2013-09-12 15:10:00,
2013-09-12 11:15:00,80.1,73.4,29.94,North,355,1.0,2.0,80,0.00,,,0.00,Wunderground v.1.15,2013-09-12 15:15:00,
2013-09-12 11:20:00,80.7,73.2,29.93,NNE,15,1.0,2.0,78,0.00,,,0.00,Wunderground v.1.15,2013-09-12 15:20:00,
2013-09-12 11:30:00,81.4,74.3,29.93,ENE,58,1.0,1.0,79,0.00,,,0.00,Wunderground v.1.15,2013-09-12 15:30:00,
2013-09-12 11:35:00,81.8,73.5,29.92,ENE,58,1.0,2.0,76,0.00,,,0.00,Wunderground v.1.15,2013-09-12 15:35:00,
2013-09-12 11:40:00,82.1,73.4,29.92,ESE,121,1.0,1.0,75,0.00,,,0.00,Wunderground v.1.15,2013-09-12 15:40:00,
2013-09-12 11:50:00,83.0,73.9,29.92,NNE,15,1.0,1.0,74,0.00,,,0.00,Wunderground v.1.15,2013-09-12 15:50:00,
2013-09-12 11:55:00,83.4,73.8,29.92,East,96,1.0,3.0,73,0.00,,,0.00,Wunderground v.1.15,2013-09-12 15:55:00,
2013-09-12 12:05:00,83.3,74.5,29.91,East,96,1.0,1.0,75,0.00,,,0.00,Wunderground v.1.15,2013-09-12 16:05:00,
2013-09-12 12:10:00,83.6,75.2,29.91,East,95,0.0,0.0,76,0.00,,,0.00,Wunderground v.1.15,2013-09-12 16:10:00,
2013-09-12 12:15:00,83.8,74.2,29.91,East,99,0.0,1.0,73,0.00,,,0.00,Wunderground v.1.15,2013-09-12 16:15:00,
2013-09-12 12:20:00,84.1,74.9,29.91,East,99,1.0,1.0,74,0.00,,,0.00,Wunderground v.1.15,2013-09-12 16:20:00,
2013-09-12 12:30:00,84.2,75.4,29.91,East,80,1.0,1.0,75,0.00,,,0.00,Wunderground v.1.15,2013-09-12 16:30:00,
2013-09-12 12:35:00,84.2,74.6,29.91,East,92,1.0,1.0,73,0.00,,,0.00,Wunderground v.1.15,2013-09-12 16:35:00,
2013-09-12 12:40:00,84.7,75.1,29.91,NNE,13,1.0,1.0,73,0.00,,,0.00,Wunderground v.1.15,2013-09-12 16:40:00,
2013-09-12 12:50:00,85.1,76.3,29.90,ENE,74,0.0,0.0,75,0.00,,,0.00,Wunderground v.1.15,2013-09-12 16:50:00,
2013-09-12 12:55:00,85.4,76.2,29.90,ENE,74,0.0,1.0,74,0.00,,,0.00,Wunderground v.1.15,2013-09-12 16:55:00,
2013-09-12 13:05:00,85.5,75.0,29.89,ENE,73,1.0,1.0,71,0.00,,,0.00,Wunderground v.1.15,2013-09-12 17:05:00,
2013-09-12 13:10:00,85.5,74.6,29.89,NNW,333,1.0,1.0,70,0.00,,,0.00,Wunderground v.1.15,2013-09-12 17:10:00,
2013-09-12 13:15:00,85.9,75.0,29.89,NE,47,1.0,1.0,70,0.00,,,0.00,Wunderground v.1.15,2013-09-12 17:15:00,
2013-09-12 13:20:00,86.1,75.6,29.89,ENE,58,1.0,1.0,71,0.00,,,0.00,Wunderground v.1.15,2013-09-12 17:20:00,
2013-09-12 13:30:00,85.8,74.9,29.88,ESE,110,1.0,1.0,70,0.00,,,0.00,Wunderground v.1.15,2013-09-12 17:30:00,
2013-09-12 13:35:00,86.1,76.0,29.88,ESE,110,0.0,1.0,72,0.00,,,0.00,Wunderground v.1.15,2013-09-12 17:35:00,
2013-09-12 13:45:00,86.3,74.9,29.88,North,355,0.0,3.0,69,0.00,,,0.00,Wunderground v.1.15,2013-09-12 17:45:00,
2013-09-12 13:50:00,86.9,74.6,29.87,NNW,338,1.0,1.0,67,0.00,,,0.00,Wunderground v.1.15,2013-09-12 17:50:00,
2013-09-12 13:55:00,87.5,75.6,29.87,SSW,210,1.0,1.0,68,0.00,,,0.00,Wunderground v.1.15,2013-09-12 17:55:00,
2013-09-12 14:05:00,87.8,76.8,29.86,ESE,107,1.0,1.0,70,0.00,,,0.00,Wunderground v.1.15,2013-09-12 18:05:00,
2013-09-12 14:10:00,87.4,77.3,29.86,ESE,107,0.0,1.0,72,0.00,,,0.00,Wunderground v.1.15,2013-09-12 18:10:00,
2013-09-12 14:15:00,87.1,75.7,29.86,East,92,0.0,1.0,69,0.00,,,0.00,Wunderground v.1.15,2013-09-12 18:15:00,
2013-09-12 14:25:00,86.6,76.9,29.85,East,92,0.0,0.0,73,0.00,,,0.00,Wunderground v.1.15,2013-09-12 18:25:00,
2013-09-12 14:30:00,86.4,77.1,29.85,ESE,109,0.0,0.0,74,0.00,,,0.00,Wunderground v.1.15,2013-09-12 18:30:00,
2013-09-12 14:35:00,86.3,74.9,29.84,ENE,78,1.0,2.0,69,0.00,,,0.00,Wunderground v.1.15,2013-09-12 18:35:00,
2013-09-12 14:45:00,87.0,76.9,29.84,ENE,74,1.0,1.0,72,0.00,,,0.00,Wunderground v.1.15,2013-09-12 18:45:00,
2013-09-12 14:50:00,87.0,76.5,29.84,North,9,0.0,1.0,71,0.00,,,0.00,Wunderground v.1.15,2013-09-12 18:50:00,
2013-09-12 14:55:00,86.6,76.1,29.83,NE,49,1.0,1.0,71,0.00,,,0.00,Wunderground v.1.15,2013-09-12 18:55:00,
2013-09-12 15:05:00,85.8,76.1,29.83,ENE,58,0.0,3.0,73,0.00,,,0.00,Wunderground v.1.15,2013-09-12 19:05:00,
2013-09-12 15:10:00,86.2,75.7,29.82,East,86,1.0,1.0,71,0.00,,,0.00,Wunderground v.1.15,2013-09-12 19:10:00,
2013-09-12 15:15:00,86.4,75.9,29.82,NNE,32,1.0,2.0,71,0.00,,,0.00,Wunderground v.1.15,2013-09-12 19:15:00,
2013-09-12 15:25:00,87.7,75.4,29.81,ESE,112,2.0,2.0,67,0.00,,,0.00,Wunderground v.1.15,2013-09-12 19:25:00,
2013-09-12 15:30:00,87.8,75.0,29.81,ESE,108,1.0,1.0,66,0.00,,,0.00,Wunderground v.1.15,2013-09-12 19:30:00,
2013-09-12 15:35:00,88.1,75.8,29.81,NE,56,1.0,2.0,67,0.00,,,0.00,Wunderground v.1.15,2013-09-12 19:35:00,
2013-09-12 15:45:00,88.2,74.5,29.80,SE,136,1.0,4.0,64,0.00,,,0.00,Wunderground v.1.15,2013-09-12 19:45:00,
2013-09-12 15:50:00,88.2,74.9,29.79,East,99,1.0,1.0,65,0.00,,,0.00,Wunderground v.1.15,2013-09-12 19:50:00,
2013-09-12 15:55:00,88.1,76.2,29.79,East,99,1.0,1.0,68,0.00,,,0.00,Wunderground v.1.15,2013-09-12 19:55:00,
2013-09-12 16:05:00,87.9,75.6,29.79,ENE,76,1.0,2.0,67,0.00,,,0.00,Wunderground v.1.15,2013-09-12 20:05:00,
2013-09-12 16:10:00,87.6,76.2,29.78,ENE,76,1.0,1.0,69,0.00,,,0.00,Wunderground v.1.15,2013-09-12 20:10:00,
2013-09-12 16:20:00,87.5,75.2,29.78,NE,46,1.0,1.0,67,0.00,,,0.00,Wunderground v.1.15,2013-09-12 20:20:00,
2013-09-12 16:25:00,87.5,74.3,29.78,WSW,254,1.0,1.0,65,0.00,,,0.00,Wunderground v.1.15,2013-09-12 20:25:00,
2013-09-12 16:30:00,87.1,77.4,29.78,ESE,108,1.0,1.0,73,0.00,,,0.00,Wunderground v.1.15,2013-09-12 20:30:00,
2013-09-12 16:40:00,86.2,76.5,29.78,NE,49,1.0,1.0,73,0.00,,,0.00,Wunderground v.1.15,2013-09-12 20:40:00,
2013-09-12 16:45:00,85.7,77.3,29.77,NE,49,0.0,1.0,76,0.00,,,0.00,Wunderground v.1.15,2013-09-12 20:45:00,
2013-09-12 16:50:00,85.3,74.8,29.77,NE,49,0.0,0.0,71,0.00,,,0.00,Wunderground v.1.15,2013-09-12 20:50:00,
2013-09-12 17:00:00,85.7,76.9,29.77,East,88,1.0,1.0,75,0.00,,,0.00,Wunderground v.1.15,2013-09-12 21:00:00,
2013-09-12 17:05:00,85.5,75.9,29.77,East,80,1.0,1.0,73,0.00,,,0.00,Wunderground v.1.15,2013-09-12 21:05:00,
2013-09-12 17:10:00,85.5,76.3,29.76,South,170,0.0,0.0,74,0.00,,,0.00,Wunderground v.1.15,2013-09-12 21:10:00,
2013-09-12 17:20:00,85.2,76.4,29.76,SE,141,0.0,0.0,75,0.00,,,0.00,Wunderground v.1.15,2013-09-12 21:20:00,
2013-09-12 17:25:00,85.0,77.0,29.76,SE,141,0.0,0.0,77,0.00,,,0.00,Wunderground v.1.15,2013-09-12 21:25:00,
2013-09-12 17:35:00,84.5,76.5,29.76,SE,141,0.0,0.0,77,0.00,,,0.00,Wunderground v.1.15,2013-09-12 21:35:00,
2013-09-12 17:40:00,84.1,77.3,29.76,SE,141,0.0,0.0,80,0.00,,,0.00,Wunderground v.1.15,2013-09-12 21:40:00,
2013-09-12 17:45:00,83.7,77.6,29.76,SE,141,0.0,0.0,82,0.00,,,0.00,Wunderground v.1.15,2013-09-12 21:45:00,
2013-09-12 17:55:00,83.2,77.9,29.76,SE,141,0.0,0.0,84,0.00,,,0.00,Wunderground v.1.15,2013-09-12 21:55:00,
2013-09-12 18:00:00,82.6,77.3,29.76,SE,141,0.0,0.0,84,0.00,,,0.00,Wunderground v.1.15,2013-09-12 22:00:00,
2013-09-12 18:05:00,82.1,77.1,29.76,SE,141,0.0,0.0,85,0.00,,,0.00,Wunderground v.1.15,2013-09-12 22:05:00,
2013-09-12 18:15:00,81.6,77.0,29.77,SE,141,0.0,0.0,86,0.00,,,0.00,Wunderground v.1.15,2013-09-12 22:15:00,
2013-09-12 18:20:00,81.3,76.7,29.77,SE,141,0.0,0.0,86,0.00,,,0.00,Wunderground v.1.15,2013-09-12 22:20:00,
2013-09-12 18:25:00,81.0,76.4,29.77,SE,141,0.0,0.0,86,0.00,,,0.00,Wunderground v.1.15,2013-09-12 22:25:00,
2013-09-12 18:35:00,80.4,76.2,29.77,SE,141,0.0,0.0,87,0.00,,,0.00,Wunderground v.1.15,2013-09-12 22:35:00,
2013-09-12 18:40:00,80.2,76.3,29.77,SE,141,0.0,0.0,88,0.00,,,0.00,Wunderground v.1.15,2013-09-12 22:40:00,
2013-09-12 18:45:00,80.0,76.1,29.77,SE,141,0.0,0.0,88,0.00,,,0.00,Wunderground v.1.15,2013-09-12 22:45:00,
2013-09-12 18:55:00,79.4,75.9,29.78,SE,141,0.0,0.0,89,0.00,,,0.00,Wunderground v.1.15,2013-09-12 22:55:00,
2013-09-12 19:00:00,79.1,75.9,29.77,NE,41,0.0,0.0,90,0.00,,,0.00,Wunderground v.1.15,2013-09-12 23:00:00,
2013-09-12 19:05:00,78.9,75.4,29.77,NE,41,0.0,0.0,89,0.00,,,0.00,Wunderground v.1.15,2013-09-12 23:05:00,
2013-09-12 19:15:00,78.4,75.2,29.77,NE,41,0.0,0.0,90,0.00,,,0.00,Wunderground v.1.15,2013-09-12 23:15:00,
2013-09-12 19:20:00,78.3,75.5,29.77,NE,41,0.0,0.0,91,0.00,,,0.00,Wunderground v.1.15,2013-09-12 23:20:00,
2013-09-12 19:25:00,78.1,74.9,29.77,NE,41,0.0,0.0,90,0.00,,,0.00,Wunderground v.1.15,2013-09-12 23:25:00,
2013-09-12 19:35:00,77.7,74.9,29.76,NE,41,0.0,0.0,91,0.00,,,0.00,Wunderground v.1.15,2013-09-12 23:35:00,
2013-09-12 19:40:00,77.5,74.7,29.77,NE,41,0.0,0.0,91,0.00,,,0.00,Wunderground v.1.15,2013-09-12 23:40:00,
2013-09-12 19:45:00,77.3,74.8,29.77,NE,41,0.0,0.0,92,0.00,,,0.00,Wunderground v.1.15,2013-09-12 23:45:00,
2013-09-12 19:55:00,77.1,74.9,29.77,NE,41,0.0,0.0,93,0.00,,,0.00,Wunderground v.1.15,2013-09-12 23:55:00,
2013-09-12 20:00:00,76.9,74.7,29.77,NE,41,0.0,0.0,93,0.00,,,0.00,Wunderground v.1.15,2013-09-13 00:00:00,
2013-09-12 20:05:00,76.7,74.5,29.78,NE,41,0.0,0.0,93,0.00,,,0.00,Wunderground v.1.15,2013-09-13 00:05:00,
2013-09-12 20:15:00,76.3,74.4,29.77,NE,41,0.0,0.0,94,0.00,,,0.00,Wunderground v.1.15,2013-09-13 00:15:00,
2013-09-12 20:20:00,76.2,74.3,29.78,NE,41,0.0,0.0,94,0.00,,,0.00,Wunderground v.1.15,2013-09-13 00:20:00,
2013-09-12 20:25:00,76.1,74.2,29.78,NE,41,0.0,0.0,94,0.00,,,0.00,Wunderground v.1.15,2013-09-13 00:25:00,
2013-09-12 20:35:00,75.9,74.0,29.78,NE,41,0.0,0.0,94,0.00,,,0.00,Wunderground v.1.15,2013-09-13 00:35:00,
2013-09-12 20:40:00,75.8,73.9,29.77,NE,41,0.0,0.0,94,0.00,,,0.00,Wunderground v.1.15,2013-09-13 00:40:00,
2013-09-12 20:45:00,75.7,74.2,29.77,NE,41,0.0,0.0,95,0.00,,,0.00,Wunderground v.1.15,2013-09-13 00:45:00,
2013-09-12 20:55:00,75.4,73.9,29.77,NE,41,0.0,0.0,95,0.00,,,0.00,Wunderground v.1.15,2013-09-13 00:55:00,
2013-09-12 21:00:00,75.3,73.8,29.77,NE,41,0.0,0.0,95,0.00,,,0.00,Wunderground v.1.15,2013-09-13 01:00:00,
2013-09-12 21:05:00,75.1,73.6,29.77,NE,41,0.0,0.0,95,0.00,,,0.00,Wunderground v.1.15,2013-09-13 01:05:00,
2013-09-12 21:15:00,74.8,73.3,29.78,NE,41,0.0,0.0,95,0.00,,,0.00,Wunderground v.1.15,2013-09-13 01:15:00,
2013-09-12 21:25:00,74.5,73.0,29.78,NE,41,0.0,0.0,95,0.00,,,0.00,Wunderground v.1.15,2013-09-13 01:25:00,
2013-09-12 21:30:00,74.4,73.2,29.78,NE,41,0.0,0.0,96,0.00,,,0.00,Wunderground v.1.15,2013-09-13 01:30:00,
2013-09-12 21:35:00,74.3,73.1,29.78,NE,41,0.0,0.0,96,0.00,,,0.00,Wunderground v.1.15,2013-09-13 01:35:00,
2013-09-12 21:40:00,74.1,72.9,29.78,NE,41,0.0,0.0,96,0.00,,,0.00,Wunderground v.1.15,2013-09-13 01:40:00,
2013-09-12 21:50:00,73.9,72.7,29.78,NE,41,0.0,0.0,96,0.00,,,0.00,Wunderground v.1.15,2013-09-13 01:50:00,
2013-09-12 21:55:00,73.9,73.0,29.77,NE,41,0.0,0.0,97,0.00,,,0.00,Wunderground v.1.15,2013-09-13 01:55:00,
2013-09-12 22:00:00,73.8,72.9,29.77,NE,41,0.0,0.0,97,0.00,,,0.00,Wunderground v.1.15,2013-09-13 02:00:00,
2013-09-12 22:10:00,73.6,72.7,29.77,NE,41,0.0,0.0,97,0.00,,,0.00,Wunderground v.1.15,2013-09-13 02:10:00,
2013-09-12 22:15:00,73.5,72.6,29.76,NE,41,0.0,0.0,97,0.00,,,0.00,Wunderground v.1.15,2013-09-13 02:15:00,
2013-09-12 22:20:00,73.3,72.4,29.76,NE,41,0.0,0.0,97,0.00,,,0.00,Wunderground v.1.15,2013-09-13 02:20:00,
2013-09-12 22:30:00,73.0,72.1,29.76,NE,41,0.0,0.0,97,0.00,,,0.00,Wunderground v.1.15,2013-09-13 02:30:00,
2013-09-12 22:35:00,72.9,71.7,29.76,NE,41,0.0,0.0,96,0.00,,,0.00,Wunderground v.1.15,2013-09-13 02:35:00,
2013-09-12 22:40:00,72.8,71.9,29.76,NE,41,0.0,0.0,97,0.00,,,0.00,Wunderground v.1.15,2013-09-13 02:40:00,
2013-09-12 22:50:00,72.5,71.6,29.76,NE,41,0.0,0.0,97,0.00,,,0.00,Wunderground v.1.15,2013-09-13 02:50:00,
2013-09-12 22:55:00,72.4,71.5,29.76,NE,41,0.0,0.0,97,0.00,,,0.00,Wunderground v.1.15,2013-09-13 02:55:00,
2013-09-12 23:00:00,72.3,71.4,29.76,NE,41,0.0,0.0,97,0.00,,,0.00,Wunderground v.1.15,2013-09-13 03:00:00,
2013-09-12 23:10:00,72.1,71.2,29.76,NE,41,0.0,0.0,97,0.00,,,0.00,Wunderground v.1.15,2013-09-13 03:10:00,
2013-09-12 23:15:00,72.0,71.1,29.76,NE,41,0.0,0.0,97,0.00,,,0.00,Wunderground v.1.15,2013-09-13 03:15:00,
2013-09-12 23:20:00,72.0,71.4,29.76,NE,41,0.0,0.0,98,0.00,,,0.00,Wunderground v.1.15,2013-09-13 03:20:00,
2013-09-12 23:30:00,71.9,71.3,29.76,NE,41,0.0,0.0,98,0.00,,,0.00,Wunderground v.1.15,2013-09-13 03:30:00,
2013-09-12 23:35:00,71.8,71.2,29.76,NE,41,0.0,0.0,98,0.00,,,0.00,Wunderground v.1.15,2013-09-13 03:35:00,
2013-09-12 23:45:00,71.7,71.1,29.76,NE,41,0.0,0.0,98,0.00,,,0.00,Wunderground v.1.15,2013-09-13 03:45:00,
2013-09-12 23:50:00,71.6,71.0,29.76,NE,41,0.0,0.0,98,0.00,,,0.00,Wunderground v.1.15,2013-09-13 03:50:00,
2013-09-12 23:55:00,71.5,70.9,29.76,NE,41,0.0,0.0,98,0.00,,,0.00,Wunderground v.1.15,2013-09-13 03:55:00,